Regional Weather Roundup
Issued by NWS Mobile, AL

Home | Current Version | Previous Version | Text Only | Print | Product List | Glossary On
Versions: 1 2 3 4 5 6 7 8 9 10 11 12 13 14 15 16 17 18 19 20 21 22 23 24 25 26 27 28 29 30 31 32 33 34 35 36 37 38 39 40 41 42 43 44 45 46 47 48 49 50
000
ASUS44 KMOB 271510
RWRMOB
REGIONAL WEATHER ROUNDUP
NATIONAL WEATHER SERVICE MOBILE AL
1000 AM CDT WED AUG 27 2014

NOTE: "FAIR" INDICATES FEW OR NO CLOUDS BELOW 12,000 FEET WITH NO
      SIGNIFICANT WEATHER AND/OR OBSTRUCTIONS TO VISIBILITY.

  * THESE STATIONS ARE PART OF THE UNIVERSITY OF SOUTH ALABAMA
    MESONET AND ARE NOT UNDER NWS OR FAA QUALITY CONTROL.

ALZ061>064-271600-
COASTAL ALABAMA

CITY           SKY/WX    TMP DP  RH WIND       PRES   REMARKS
MOBILE REG APT MOSUNNY   86  73  65 NE7       30.05S
BROOKLEY FIELD SUNNY     84  74  71 E6        30.06R
USA CAMPUS*      N/A     86  72  62 NE7       30.03S
DOG RIVER*       N/A     84  75  74 E6        30.05R


CITY           SKY/WX    TMP DP  RH WIND       PRES   REMARKS
MOUNT VERNON*    N/A     79  70  73 CALM      30.06R
SARALAND*      NOT AVBL
BAY MINETTE*   NOT AVBL
LOXLEY*          N/A     84  72  65 NE5       30.05S
ROBERTSDALE*     N/A     82  73  74 E8        30.04S
FAIRHOPE*        N/A     84  73  70 NE7       30.03S
ELBERTA*         N/A     84  73  70 NE12      30.04R
FOLEY*         NOT AVBL
GRAND BAY*       N/A     86  72  62 NE6       30.02R
DAUPHIN ISLND* NOT AVBL
BON SCOUR NWR* NOT AVBL
GULF SHORES    MOSUNNY   85  74  70 E9        30.04R

$$

ALZ051>060-271600-
INTERIOR SOUTHWEST AND SOUTH CENTRAL ALABAMA

CITY           SKY/WX    TMP DP  RH WIND       PRES   REMARKS
GREENVILLE     SUNNY     83  66  56 VRB3      30.08S
EVERGREEN      SUNNY     85  69  58 E6        30.08R
CASTLEBERRY*   NOT AVBL
ATMORE*        NOT AVBL
DIXIE*         NOT AVBL
ANDALUSIA/OPP  SUNNY     88  69  53 SE5       30.08R
ANDALUSIA*     NOT AVBL
FLORALA APT    SUNNY     85  66  53 SE3       30.09R
FLORALA*         N/A     82  64  54 E3        30.05R

$$

FLZ001>006-271600-
WESTERN FLORIDA PANHANDLE

CITY           SKY/WX    TMP DP  RH WIND       PRES   REMARKS
PENSACOLA      SUNNY     83  72  69 E8        30.05R
NAS PENSACOLA  MOSUNNY   86  74  67 E9        30.04R
MILTON         MOSUNNY   84  69  60 SE5       30.06R
WHTNG S FIELD  MOSUNNY   87  70  56 SE8       30.06R


CITY           SKY/WX    TMP DP  RH WIND       PRES   REMARKS
WALNUT HILL*   NOT AVBL
JAY*           NOT AVBL
DUKE FIELD     MOSUNNY   86  69  57 E6        30.05S
CRESTVIEW      SUNNY     87  68  52 E6        30.08R
VALPARAISO     MOSUNNY   84  71  63 E8        30.06R
DESTIN         SUNNY     86  71  60 SE12      30.05R

$$

MSZ076-079-271600-
INTERIOR SOUTHEAST MISSISSIPPI

CITY           SKY/WX    TMP DP  RH WIND       PRES   REMARKS
LEAKESVILLE*     N/A     82  68  61 NE5         N/A
AGRICOLA*      NOT AVBL

$$

MARINE OBSERVATIONS

STATION/POSITION TIME  TEMP    WIND        PRES    WAVE
                       AIR SEA DIR/SP/G            HT/PER
                 (UTC) (F)     (DEG/KT/KT) (MB)    (FT/S)
PASCAGOULA       1500   85      70/  6/  8 1016.6S
PETIT BOIS ISLND 1500   84      60/ 11/ 14 1017.1R
GRAND BAY        1400   80      60/  9     1018.0S
KATRINA CUT      1400   84      70/ 11     1017.3R
CEDAR POINT      1400   80      60/  8     1017.3R
E DAUPHIN ISLAND 1400   80      50/ 10/ 11 1016.9R
MIDDLE BAY LIGHT 1400   82      70/ 11     1016.6S
USCG MOBILE BAY  1500   83 85   80/  3/  6 1016.3S
STATE DOCKS      1500   85 85              1017.1S
MEAHER PARK      1400   84      70/  4     1016.6S
WEEKS BAY        1400   80                   N/A
FORT MORGAN      1500   82      70/ 10/ 12 1016.6R
12 S ORANGE BCH  1500   82 85   80/ 16/ 17 1016.8R   3/ 6
PENSACOLA BAY    1500   88 85  130/  2/  5 1017.6S
64 S DAUPHIN ISL 1443   82 86   90/ 19/ 23 1016.3R
67 S FORT MORGAN 1400   84                 1015.9R

$$

SELECTED LOCATIONS ACROSS THE REGION

CITY           SKY/WX    TMP DP  RH WIND       PRES   REMARKS
NEW ORLEANS    PTSUNNY   86  74  67 NE14      30.02R
GULFPORT       SUNNY     87  72  60 NE6       30.03R
PASCAGOULA AP  SUNNY     86  72  62 E5        30.03S
PASCAGOULA*      N/A     86  72  62 SE2       30.02R
HATTIESBURG    SUNNY     84  67  56 E6        30.07R
LAUREL         SUNNY     84  66  54 NE6       30.08S
MERIDIAN       SUNNY     85  61  44 E8        30.08S
JACKSON        MOSUNNY   83  65  54 E7        30.07S
MONTGOMERY     SUNNY     82  64  54 E5        30.09R
TROY           SUNNY     82  67  60 CALM      30.09S
KINSTON*       NOT AVBL
GENEVA*          N/A     84  66  54 S6        30.09R
ASHFORD*       NOT AVBL
DOTHAN         SUNNY     82  68  62 CALM      30.12R
PANAMA CITY    SUNNY     86  68  54 NE7       30.05R

$$



USA.gov is the U.S. government's official web portal to all federal, state and local government web resources and services.